Regional Weather Roundup
Issued by NWS

Home | Current Version | Previous Version | Text Only | Print | Product List | Glossary On
Versions: 1 2 3 4 5 6 7 8 9 10 11 12 13 14 15 16 17 18 19 20 21 22 23 24 25 26 27 28 29 30 31 32 33 34 35 36 37 38 39 40 41 42 43 44 45 46 47 48 49 50
000
ASUS43 KDTX 181110
RWRMI
MICHIGAN HOURLY REGIONAL WEATHER ROUNDUP
NATIONAL WEATHER SERVICE DETROIT/PONTIAC MI
600 AM EST THU DEC 18 2014

NOTE: "FAIR" INDICATES FEW OR NO CLOUDS BELOW 12,000 FEET WITH NO
SIGNIFICANT WEATHER AND/OR OBSTRUCTION TO VISIBILITY.

MIZ047>049-052>055-059>063-066>070-074>076-081>083-181200-
SOUTHEAST LOWER MICHIGAN

CITY           SKY/WX    TMP DP  RH WIND       PRES   REMARKS
ADRIAN         CLOUDY    29  22  75 W7        30.21S
ALMA           CLOUDY    30  28  92 W5        30.17S
ANN ARBOR      CLOUDY    29  22  75 W7        30.18S
BAD AXE        CLOUDY    27  26  93 N8        30.15F
DETROIT CITY   CLOUDY    32  23  69 NW7       30.18S
DETROIT        CLOUDY    30  22  72 W8        30.20R
FLINT          CLOUDY    31  25  78 W10       30.17R
GROSSE ILE     CLOUDY    30  23  74 W6        30.18S
HILLSDALE      CLOUDY    28  25  88 W7        30.19R
HOWELL         CLOUDY    29  25  86 W7        30.17R

CITY           SKY/WX    TMP DP  RH WIND       PRES   REMARKS
JACKSON        CLOUDY    28  22  78 W7        30.18S
LAMBERTVILLE   CLOUDY    32  23  69 W7        30.21F
LANSING        CLOUDY    29  24  82 W8        30.18S
LAPEER         NOT AVBL
MASON          CLOUDY    28  24  82 W7        30.18S
MONROE         CLOUDY    30  23  74 W7        30.19S
MT. CLEMENS    CLOUDY    30  28  93 W6        30.15S
PONTIAC        CLOUDY    28  23  81 W8        30.14S
PORT HURON     CLOUDY    28  27  93 W5        30.16S
TRI CITIES     CLOUDY    32  26  78 NW6       30.17S
$$
MIZ043>046-050>051-056>058-064>065-071>073-077>080-181200-
SOUTHWEST LOWER MICHIGAN

CITY           SKY/WX    TMP DP  RH WIND       PRES   REMARKS
BATTLE CREEK   CLOUDY    30  23  75 W8        30.20S
BENTON HARBOR  CLOUDY    27  22  81 W7        30.24S
BIG RAPIDS     LGT SNOW  30  29  97 CALM      30.16R
COLDWATER      CLOUDY    28  24  84 W6        30.21R
HOLLAND        CLOUDY    33  25  72 W5        30.22S
GRAND RAPIDS   CLOUDY    30  25  81 W9        30.19F
KALAMAZOO      CLOUDY    30  22  72 W8        30.22R
MARSHALL       CLOUDY    28  23  82 W5        30.19S
MUSKEGON       CLOUDY    32  26  78 W8        30.21S
$$
MIZ016>042-181200-
NORTHERN LOWER MICHIGAN

CITY           SKY/WX    TMP DP  RH WIND       PRES   REMARKS
ALPENA         CLOUDY    24  19  81 NW14      30.19R
BEAVER ISLAND  MOCLDY    22  19  87 N6        30.23F
BELLAIRE       CLOUDY    27  23  86 N3        30.22S
CADILLAC       CLOUDY    26  23  91 N8        30.13S
CHARLEVOIX     CLOUDY    26  22  87 N10       30.24S
FRANKFORT      CLOUDY    29  26  88 N8        30.19F
GAYLORD        CLOUDY    20  19  96 N6        30.16R
GRAYLING       CLOUDY    26  24  93 NW12      30.16F
HARBOR SPRINGS CLOUDY    24  20  85 N5        30.22R
HOUGHTON LAKE  CLOUDY    25  22  88 N12       30.14F
MANISTEE       CLOUDY    28  25  86 N7        30.20R
OSCODA         CLOUDY    25  22  89 N10       30.17S
PELLSTON       CLOUDY    23  18  81 N8        30.22S
TRAVERSE CITY  CLOUDY    29  24  82 N9        30.19F
$$
MIZ007>008-015-181200-
EASTERN UPPER MICHIGAN

CITY           SKY/WX    TMP DP  RH WIND       PRES   REMARKS
KINROSS        PTCLDY    12  10  92 N5        30.23R
MACKINAC ISLAN PTCLDY    19  18  93 N10       30.22R
NEWBERRY       CLEAR     16  15  95 N5        30.24S
S. S. MARIE    PTCLDY    13   4  67 N5        30.26R
$$
MIZ004>006-011>014-085-181200-
CENTRAL UPPER MICHIGAN

CITY           SKY/WX    TMP DP  RH WIND       PRES   REMARKS
MANISTIQUE     CLEAR     20  19  93 N8        30.25R
ESCANABA       PTCLDY    25  19  80 N6        30.25S
MENOMINEE      CLOUDY    27  19  74 N9        30.24F
SAWYER-GWINN   MOCLDY    22  19  90 N6        30.24S
$$
MIZ001>003-009>011-084-181200-
WESTERN UPPER MICHIGAN

CITY           SKY/WX    TMP DP  RH WIND       PRES   REMARKS
IRON MOUNTAIN  CLOUDY    23  18  81 N9        30.24F
HOUGHTON       PTCLDY     5   1  83 NW5       30.28F
COPPER HARBOR    N/A     26  17  68 E8G16     30.31S
IRONWOOD       CLOUDY    19  18  93 CALM      30.26S
$$

ABBREVIATIONS USED IN REMARKS
   TC - TEMPERATURE IN CELSIUS
  WCI - WIND CHILL INDEX
   HX - HEAT INDEX
  VSB - VISIBILITY




USA.gov is the U.S. government's official web portal to all federal, state and local government web resources and services.